Home > Time Zones > World Clock > Weather > France > Lyon > Past weeks

Flag for France Weather past 2 weeks in Lyon, France

Now
63 °F

Passing clouds.


Feels Like: 63 °F
Forecast: 63 / 81 °F
Wind: 2 mph from North

Location: Lyon / Bron

Current Time: Jul 26, 2014 at 4:05:43 AM

Latest Report: Jul 26, 2014 at 3:30 AM


Visibility: N/A

Pressure: 29.98 "Hg

Humidity: 94%

Dew point: 61 °F

Location of LyonLocation

Historic Weather in Lyon — Graph

°F

Lyon temperature yesterday

Maximum temperature yesterday: 86 °F (at 3:30 PM)
Minimum temperature yesterday: 61 °F (at 6:30 AM)
Average temperature yesterday: 73 °F

Past Weeks' High & Low Weather Summary

 TemperatureHumidityPressure
High93 °F (Jul 17, 6:00 PM)94% (Jul 11, 3:30 AM)30.15 "Hg (Jul 11, 3:30 AM)
Low54 °F (Jul 15, 5:00 AM)23% (Jul 17, 7:00 PM)29.80 "Hg (Jul 19, 7:00 PM)
Average71 °F67%29.99 "Hg
* Reported Jul 11 3:00 AM — Jul 26 3:00 AM, Lyon, Weather by CustomWeather, © 2014

Note: Actual official high and low records may vary slightly from our data, if they occured in-between our weather recording intervals... More about our weather records

Advertising

Lyon weather history for previous 24 hours

 ConditionsComfort  
Time TempWeatherWind HumidityBarometerVisibility
3:00 AM
Jul 26
63 °FMild.6 mph94%29.98 "HgN/A
2:30 AM63 °FLight rain. Passing clouds.8 mph94%29.98 "HgN/A
2:00 AM64 °FLight rain. Overcast.6 mph88%29.98 "Hg4 mi
1:30 AM64 °FRain. Passing clouds.2 mph88%29.98 "Hg4 mi
1:00 AM66 °FHeavy rain. Partly cloudy.7 mph78%29.98 "Hg4 mi
12:30 AM70 °FMostly cloudy.13 mph64%29.95 "HgN/A
12:00 AM70 °FMild.12 mph60%29.95 "HgN/A
11:30 PM
Jul 25
70 °FMild.7 mph60%29.92 "HgN/A
11:00 PM70 °FMild.5 mph57%29.92 "HgN/A
10:30 PM70 °FClear.No wind60%29.92 "HgN/A
10:00 PM72 °FClear.2 mph53%29.89 "HgN/A
9:30 PM72 °FClear.6 mph53%29.89 "HgN/A
9:00 PM73 °FClear.7 mph50%29.89 "HgN/A
8:30 PM75 °FClear.8 mph47%29.86 "HgN/A
8:00 PM77 °FClear.9 mph51%29.86 "HgN/A
7:30 PM79 °FClear.3 mph48%29.86 "HgN/A
7:00 PM81 °FClear.6 mph45%29.86 "HgN/A
6:30 PM82 °FClear.2 mph40%29.86 "HgN/A
6:00 PM82 °FClear.6 mph37%29.86 "HgN/A
5:30 PM82 °FClear.7 mph35%29.86 "HgN/A
5:00 PM84 °FClear.3 mph31%29.86 "HgN/A
4:30 PM84 °FClear.5 mph33%29.86 "HgN/A
4:00 PM86 °FClear.2 mph35%29.86 "HgN/A
3:30 PM86 °FClear.2 mph35%29.86 "HgN/A
3:00 PM84 °FClear.3 mph37%29.86 "HgN/A
2:30 PM82 °FClear.2 mph40%29.89 "HgN/A
2:00 PM82 °FClear.3 mph42%29.89 "HgN/A
1:30 PM82 °FClear.3 mph48%29.89 "HgN/A
1:00 PM81 °FClear.3 mph48%29.89 "HgN/A
12:30 PM81 °FClear.5 mph54%29.92 "HgN/A
12:00 PM81 °FClear.3 mph51%29.92 "HgN/A
11:30 AM79 °FClear.5 mph54%29.92 "HgN/A
11:00 AM77 °FClear.5 mph57%29.92 "HgN/A
10:30 AM75 °FClear.3 mph61%29.92 "HgN/A
10:00 AM73 °FClear.3 mph65%29.92 "HgN/A
9:30 AM72 °FClear.3 mph69%29.92 "HgN/A
9:00 AM68 °FClear.3 mph73%29.92 "HgN/A
8:30 AM66 °FClear.6 mph78%29.92 "HgN/A
8:00 AM64 °FClear.5 mph83%29.92 "HgN/A
7:30 AM63 °FClear.3 mph88%29.92 "HgN/A
7:00 AM61 °FClear.3 mph88%29.92 "HgN/A
6:30 AM61 °FClear.2 mph88%29.92 "HgN/A
6:00 AM63 °FClear.2 mph83%29.92 "HgN/A
5:30 AM63 °FClear.No wind83%29.89 "HgN/A
5:00 AM63 °FClear.2 mph88%29.89 "HgN/A
4:30 AM63 °FClear.2 mph88%29.89 "HgN/A
4:00 AM63 °FClear.2 mph88%29.92 "HgN/A
Weather by CustomWeather, © 2014

See weather overviewHow to use our weather pages